Location: Clarion
(42.7316°N, 93.7330°W)
Time: 09:38:45
(UTC+00:00)

TSX-5 - Pass Details

Date: 22 April 2026
Orbit: 387 x 997 km, 68.9° (Epoch: 17 May)

Event Time Altitude Azimuth Distance (km) Brightness Sun altitude
Rises 10:28:27 0° 336° (NNW) 2,312 7.1 -10.0°
Reaches altitude 10° 10:30:31 10° 341° (NNW) 1,429 6.0 -9.6°
Maximum altitude 10:33:33 55° 61° (ENE) 473 3.9 -9.1°
Drops below altitude 10° 10:36:37 10° 140° (SE) 1,448 6.2 -8.6°
Sets 10:38:44 0° 145° (SE) 2,346 7.2 -8.3°
